Simultaneous Nadir Overpasses (SNOs) Predictions

Prediction of SNOs between GOES-16 and METOP-C Satellite Orbit:

Table of predicted SNOs for the next 14.0 days since TLE Epoch: 11/13/2021
Index Date Time (GOES-16) GOES-16 Lat,Lon METOP-C Lat,Lon Distance(km) Time Diff (sec)
1 11/13/2021 14:17:51 -0.01, -75.20 -0.82, -71.48 424.19 80
2 11/15/2021 02:36:51 0.02, -75.20 -0.18, -76.07 99.74 80
3 11/16/2021 02:13:32 0.02, -75.20 0.91, -71.07 470.34 80
4 11/17/2021 14:32:25 -0.01, -75.24 0.10, -75.64 46.33 80
5 11/20/2021 02:30:46 -0.00, -75.25 -0.00, -75.23 1.57 80
6 11/22/2021 14:31:39 0.02, -75.30 -0.07, -74.80 56.21 80
7 11/24/2021 02:48:00 -0.02, -75.30 -0.91, -79.40 465.93 80
8 11/25/2021 02:30:00 -0.03, -75.32 0.18, -74.40 105.13 80
9 11/26/2021 14:46:14 0.03, -75.36 0.83, -78.96 410.43 80
